Ypsilanti, MI

4:05 AM EST on February 10, 2016 (GMT -0500)
Willow Run

Weather History for KYIP - February, 2013

Change the Weather History Date:

Tuesday, February 26, 2013

  Actual Average Record
Temperature  
Mean Temperature 32 °F -  
Max Temperature 37 °F 38 °F 62 °F (1976)
Min Temperature 28 °F 23 °F -40 °F (1999)
Degree Days  
Heating Degree Days 32    
Moisture  
Dew Point 28 °F    
Average Humidity 76    
Maximum Humidity 85    
Minimum Humidity 59    
Precipitation  
Precipitation 0.61 in - - ()
Sea Level Pressure  
Sea Level Pressure 29.71 in    
Wind  
Wind Speed 15 mph (ENE)    
Max Wind Speed 24 mph    
Max Gust Speed 32 mph    
Visibility 4 miles    
Events Rain , Snow    
Averages and records for this station are not official NWS values.
T = Trace of Precipitation, MM = Missing Value Source: NWS Daily Summary

Daily Weather History Graph

Daily Weather History Graph

Search for Another Location

Airport or City:

Trip Planner

Search our weather history database for the weather conditions in past years. The results will help you decide how hot, cold, wet, or windy it might be!

Date:

Astronomy

Feb. 26, 2013 Rise Set
Actual Time 7:13 AM EST 6:20 PM EST
Civil Twilight 6:45 AM EST 6:49 PM EST
Nautical Twilight 6:13 AM EST 7:21 PM EST
Astronomical Twilight 5:40 AM EST 7:53 PM EST
Moon 7:38 PM EST (2/26) 7:13 AM EST (2/26)
Length of Visible Light 12h 03m
Length of Day
11h 07m
Full, 99% of the Moon is Illuminated
Feb 26
Full
Mar 4
Last Quarter
Mar 11
New
Mar 19
First Quarter
Mar 27
Full

Hourly Weather History & Observations

Time (EST) Temp. Windchill Dew Point Humidity Pressure Visibility Wind Dir Wind Speed Gust Speed Precip Events Conditions
12:53 AM 30.0 °F 22.4 °F 19.0 °F 64% 30.10 in 10.0 mi ENE 8.1 mph - N/A   Clear
1:53 AM 28.9 °F 22.8 °F 19.9 °F 69% 30.10 in 10.0 mi NE 5.8 mph - N/A   Clear
2:53 AM 30.0 °F 20.0 °F 21.0 °F 69% 30.08 in 10.0 mi NE 12.7 mph - N/A   Clear
3:53 AM 30.9 °F 21.2 °F 21.0 °F 67% 30.04 in 10.0 mi ENE 12.7 mph - N/A   Clear
4:53 AM 30.9 °F 20.7 °F 21.0 °F 67% 30.00 in 10.0 mi ENE 13.8 mph - N/A   Clear
5:53 AM 30.9 °F 20.2 °F 21.0 °F 67% 29.99 in 10.0 mi ENE 15.0 mph - N/A   Clear
6:53 AM 32.0 °F 22.1 °F 21.9 °F 66% 29.98 in 10.0 mi ENE 13.8 mph 20.7 mph N/A   Clear
7:53 AM 33.1 °F 23.0 °F 21.9 °F 64% 29.97 in 10.0 mi ENE 15.0 mph - N/A   Clear
8:53 AM 33.1 °F 23.0 °F 21.9 °F 64% 29.96 in 10.0 mi ENE 15.0 mph 20.7 mph N/A   Clear
9:53 AM 35.1 °F 24.5 °F 23.0 °F 61% 29.89 in 10.0 mi ENE 18.4 mph 25.3 mph N/A   Clear
10:53 AM 37.0 °F 27.4 °F 24.1 °F 59% 29.85 in 10.0 mi ENE 17.3 mph 27.6 mph N/A   Clear
11:53 AM 36.0 °F 26.0 °F 25.0 °F 64% 29.84 in 7.0 mi East 17.3 mph 28.8 mph 0.00 in Rain Light Rain
12:26 PM 35.6 °F 24.5 °F 26.6 °F 70% 29.79 in 5.0 mi ENE 20.7 mph 25.3 mph 0.02 in Rain Light Freezing Rain
12:53 PM 35.1 °F 24.5 °F 27.0 °F 72% 29.78 in 4.0 mi ENE 18.4 mph 26.5 mph 0.04 in Rain Light Freezing Rain
1:53 PM 35.1 °F 23.8 °F 28.9 °F 78% 29.71 in 4.0 mi ENE 20.7 mph 28.8 mph 0.03 in Rain Light Freezing Rain
2:40 PM 35.6 °F 24.2 °F 28.4 °F 75% 29.67 in 2.5 mi ENE 21.9 mph 29.9 mph 0.03 in Rain Light Freezing Rain
2:53 PM 35.1 °F 23.5 °F 28.9 °F 78% 29.67 in 2.5 mi ENE 21.9 mph 32.2 mph 0.05 in Rain Rain
3:04 PM 35.6 °F 23.7 °F 28.4 °F 75% 29.66 in 2.0 mi ENE 24.2 mph 31.1 mph 0.03 in Rain Light Freezing Rain
3:19 PM 35.6 °F 25.9 °F 28.4 °F 75% 29.66 in 1.8 mi East 16.1 mph 24.2 mph 0.07 in Rain Light Freezing Rain
3:40 PM 35.6 °F 25.9 °F 30.2 °F 81% 29.67 in 2.0 mi East 16.1 mph 26.5 mph 0.13 in Rain Light Freezing Rain
3:53 PM 35.1 °F 23.8 °F 30.0 °F 82% 29.68 in 1.8 mi East 20.7 mph 26.5 mph 0.18 in Rain Light Freezing Rain
4:18 PM 35.6 °F 26.2 °F 30.2 °F 81% 29.65 in 1.5 mi ENE 15.0 mph 25.3 mph 0.11 in Rain Light Freezing Rain
4:44 PM 35.6 °F 24.8 °F 30.2 °F 81% 29.64 in 2.0 mi ENE 19.6 mph 26.5 mph 0.17 in Rain Light Freezing Rain
4:53 PM 36.0 °F 26.0 °F 30.9 °F 82% 29.65 in 2.0 mi ENE 17.3 mph 31.1 mph 0.17 in Snow Light Snow
5:00 PM 35.6 °F 25.2 °F 30.2 °F 81% 29.63 in 1.5 mi ENE 18.4 mph 25.3 mph 0.01 in Snow Light Snow
5:12 PM 35.6 °F 24.8 °F 30.2 °F 81% 29.62 in 0.8 mi ENE 19.6 mph 26.5 mph 0.01 in Snow Light Snow
5:53 PM 36.0 °F 26.3 °F 30.9 °F 82% 29.62 in 0.5 mi East 16.1 mph 26.5 mph 0.02 in Snow Snow
6:18 PM 35.6 °F 25.5 °F 30.2 °F 81% 29.60 in 1.2 mi ENE 17.3 mph 25.3 mph 0.01 in Snow Light Snow
6:53 PM 36.0 °F 27.1 °F 30.9 °F 82% 29.61 in 2.0 mi ENE 13.8 mph - 0.03 in Snow Light Snow
7:21 PM 35.6 °F 26.2 °F 30.2 °F 81% 29.59 in 1.2 mi ENE 15.0 mph 25.3 mph 0.02 in Snow Light Snow
7:32 PM 35.6 °F 26.2 °F 30.2 °F 81% 29.59 in 0.8 mi ENE 15.0 mph - 0.02 in Snow Light Snow
7:48 PM 35.6 °F 25.9 °F 30.2 °F 81% 29.58 in 1.0 mi ENE 16.1 mph - 0.03 in Snow Light Snow
7:53 PM 35.1 °F 24.8 °F 30.9 °F 85% 29.59 in 1.2 mi ENE 17.3 mph - 0.03 in Snow Light Snow
8:30 PM 35.6 °F 25.9 °F 30.2 °F 81% 29.57 in 0.8 mi ENE 16.1 mph 23.0 mph 0.01 in Snow Light Snow
8:53 PM 35.1 °F 25.2 °F 30.9 °F 85% 29.57 in 0.8 mi ENE 16.1 mph - 0.01 in Snow Light Snow
9:01 PM 35.6 °F 25.5 °F 30.2 °F 81% 29.56 in 0.8 mi ENE 17.3 mph - 0.00 in Snow Light Snow
9:41 PM 35.6 °F 26.6 °F 30.2 °F 81% 29.54 in 1.0 mi ENE 13.8 mph - 0.01 in Snow Light Snow
9:53 PM 35.1 °F 25.5 °F 30.9 °F 85% 29.55 in 1.5 mi ENE 15.0 mph - 0.01 in Snow Light Snow
10:23 PM 35.6 °F 27.1 °F 30.2 °F 81% 29.52 in 2.5 mi ENE 12.7 mph - 0.01 in Snow Light Snow
10:35 PM 35.6 °F 26.6 °F 30.2 °F 81% 29.52 in 3.0 mi ENE 13.8 mph - 0.01 in Snow Light Snow
10:48 PM 35.6 °F 26.6 °F 30.2 °F 81% 29.51 in 1.8 mi ENE 13.8 mph - 0.02 in Snow Light Snow
10:53 PM 36.0 °F 26.3 °F 30.9 °F 82% 29.52 in 1.2 mi ENE 16.1 mph - 0.02 in Snow Light Snow
11:33 PM 35.6 °F 26.2 °F 30.2 °F 81% 29.50 in 3.0 mi ENE 15.0 mph 23.0 mph 0.01 in Snow Light Snow
11:53 PM 36.0 °F 27.1 °F 30.9 °F 82% 29.50 in 2.5 mi ENE 13.8 mph - 0.02 in Snow Light Snow